* Astronomy

Members Login
Username 
 
Password 
    Remember Me  
Post Info TOPIC: Asteroid 2012 BE77


L

Posts: 131433
Date:
Asteroid 2012 BE77
Permalink  
 


Orbital elements:
2012 BE77                                                Earth MOID = 0.2347 AU
Epoch 2012 Mar. 14.0 TT = JDT 2456000.5                 MPC
M 358.44786              (2000.0)            P               Q
n   0.33510336     Peri.  218.92283     -0.98235855     -0.17713423
a   2.0528168      Node   310.76661     +0.18518060     -0.87670393
e   0.4050538      Incl.    4.54071     +0.02607337     -0.44722890
P   2.94           H   22.5           G   0.15           U   8

MPEC 2012 - B86



__________________
Page 1 of 1  sorted by
 
Quick Reply

Please log in to post quick replies.



Create your own FREE Forum
Report Abuse
Powered by ActiveBoard